sat.trackr.live / text

‹ back to catalog

STARLINK-31922

NORAD 59846 · 2024-097M

PAYLOAD ACTIVE UNKNOWN

§ Identity

Operator
Country
US
Launch date
2024-05-23
Launch site
AFETR
Launch vehicle
Mass (kg)
RCS (m²)

Purposes: comms

External: N2YO · Heavens-Above · Gunter

§ Orbital elements

Epoch: 2026-09-21T22:27:46.528416Z

Period
94.27 min
Inclination
43.0032°
Eccentricity
0.0001013
Mean motion
15.27574358 rev/d
Perigee alt
482.4 km
Apogee alt
483.8 km
Semi-major
6,861.2 km
B*
1.1983e-5
RAAN
245.7575°
Arg perigee
271.7041°
Mean anomaly
88.3694°
Rev number
13,193

§ Raw data

STARLINK-319221 59846U 24097M   26264.93595519  .00000068  00000+0  11983-4 0  99992 59846  43.0032 245.7575 0001013 271.7041  88.3694 15.27574358131930

JSON: /api/v1/satellites/59846 · /tle

For live sub-satellite position, see the globe view (requires WebGL).

§ Visibility from observer

Set your observer location to see the next 7 days of passes ≥ 10°. The values pass through the URL so the page stays shareable.

No JS? Fill the form by hand. The geolocation button needs JavaScript.